Theta_e
345 346 346 345 346 348 348 344 343 342 341 342 342 341 339 340 340 335 323 318 315 311 311 311 311 310 309 309 311 313 316 317 318 319 318 311 309 309 310 310 311 313 318
347 347 346 347 347 349 345 342 343 341 340 340 341 343 339 339 337 328 316 313 311 310 309 308 308 307 307 308 307 307 308 309 312 313 309 310 310 311 312 313 314 315 315
347 347 348 348 346 349 341 340 342 336 337 339 339 341 337 337 332 320 313 311 311 308 307 307 307 308 308 309 309 309 308 308 309 310 311 312 312 313 312 312 313 312 312
347 343 350 348 349 343 341 335 336 336 337 337 337 339 336 336 333 324 311 312 310 308 307 308 308 308 308 308 309 310 311 311 310 310 312 313 314 315 315 314 314 314 314
344 339 339 349 351 343 339 338 336 337 340 340 340 336 336 335 333 332 312 312 309 308 307 307 308 308 309 311 315 315 314 313 313 314 315 316 316 316 316 316 315 315 314
349 348 341 352 349 344 342 343 338 339 340 342 339 335 336 335 334 319 311 310 309 308 308 309 309 310 312 315 317 316 316 316 316 316 316 316 316 316 316 317 316 316 316
354 350 350 352 351 347 345 344 343 342 342 343 337 335 335 336 323 311 312 310 309 309 313 313 311 312 315 316 317 317 318 317 317 316 316 316 316 316 316 316 316 317 316
346 353 352 352 351 348 347 346 344 345 343 337 337 335 336 331 315 312 311 309 308 312 317 316 313 315 316 317 317 318 318 318 317 317 316 317 316 316 315 315 316 315 314
350 350 349 352 352 349 348 347 347 346 344 337 337 335 336 328 312 311 309 308 312 316 317 317 315 314 317 317 318 318 319 319 318 318 317 317 316 315 314 314 315 314 313
349 349 350 353 353 349 350 348 347 345 343 338 336 336 335 325 311 310 309 312 315 317 318 318 318 314 315 317 318 318 317 317 318 318 318 317 315 310 310 311 311 310 310
350 351 352 354 353 351 351 348 347 345 340 336 335 337 333 318 311 310 310 314 316 317 317 317 317 313 313 316 318 317 317 317 317 318 317 317 311 307 306 307 307 307 308
352 353 353 353 352 352 351 348 347 343 340 335 335 336 328 314 312 310 312 316 317 317 314 312 312 314 315 316 318 318 318 317 317 317 316 312 307 306 306 306 308 310 310
353 353 350 350 348 347 348 348 346 343 338 335 336 335 326 312 311 311 312 314 311 311 314 312 314 315 316 318 318 318 319 318 318 317 313 310 306 305 305 305 305 304 302
350 349 348 347 336 340 347 345 345 344 336 337 337 333 322 313 310 310 311 311 311 314 312 312 314 315 317 317 317 318 319 319 318 315 312 310 306 305 305 304 304 303 302
349 340 344 346 343 335 344 344 345 341 336 337 336 334 325 311 309 309 310 313 315 314 313 312 312 314 317 317 317 319 319 318 318 314 312 309 305 305 305 304 303 303 300
344 342 340 342 343 344 343 343 343 339 337 336 334 332 317 310 309 312 313 314 317 317 317 316 312 313 316 317 317 318 318 318 317 312 310 307 305 305 304 304 304 302 299
343 340 340 337 339 342 343 342 340 337 335 333 331 320 310 313 317 317 317 318 318 318 317 315 312 312 316 316 316 317 318 318 315 311 310 306 305 304 305 305 304 301 299
334 336 340 339 336 337 341 340 338 336 335 334 325 315 317 319 319 319 318 318 318 316 312 313 315 316 316 316 317 319 318 318 314 311 310 306 305 305 305 305 303 300 298
339 337 338 339 334 340 340 338 336 336 335 329 317 314 319 319 319 319 318 317 313 313 315 316 317 317 316 316 318 319 319 318 313 311 310 307 305 306 305 304 301 299 297
335 336 337 337 342 341 337 336 335 336 334 319 318 319 319 317 315 314 313 314 316 316 317 317 317 317 317 318 319 318 318 316 312 310 309 307 305 305 304 302 300 298 297
338 336 334 336 341 339 338 336 336 332 325 322 321 319 317 315 316 315 315 316 317 317 317 317 318 319 319 318 318 318 317 315 312 310 309 308 305 304 302 300 299 298 300
340 338 339 341 340 339 337 336 334 329 327 325 322 320 315 315 317 317 317 317 317 317 318 318 318 319 318 318 318 318 317 315 312 310 309 308 304 302 301 300 299 298 301
341 342 340 340 339 337 336 334 328 322 320 320 319 317 316 317 318 318 319 319 319 319 318 318 319 319 319 318 318 318 317 315 312 311 309 308 303 302 300 299 299 298 301
339 339 338 338 337 332 326 323 322 321 321 320 320 318 319 319 318 319 319 319 319 318 319 318 319 318 318 318 318 318 317 315 312 310 310 308 303 301 300 300 299 298 299
338 338 337 335 331 326 324 323 322 321 321 321 321 321 320 320 319 319 320 319 318 319 319 320 318 317 317 318 318 318 317 315 312 310 310 309 304 301 300 300 299 297 297
335 336 337 335 328 326 325 323 322 321 322 322 322 320 320 320 319 318 318 318 319 319 318 318 318 318 319 319 319 318 317 314 312 311 310 309 304 300 300 300 299 297 297
Wind_Speed
31 29 24 23 25 18 13 15 17 14 10 9 13 12 10 5 2 6 7 7 6 5 4 5 6 8 7 6 6 5 5 4 2 3 7 10 11 11 12 10 9 9 9
32 27 27 25 25 15 15 24 14 12 8 10 12 18 12 5 2 5 5 4 3 3 6 6 7 9 7 8 8 6 6 5 4 4 6 9 12 14 13 12 12 12 11
24 19 34 31 30 18 13 15 18 16 8 7 9 25 18 10 0 3 4 2 2 4 6 6 7 8 7 8 9 9 9 9 7 6 7 7 9 11 13 13 11 12 13
15 10 28 35 27 21 11 13 19 22 10 10 3 9 21 10 4 4 4 2 5 5 6 7 7 7 7 8 9 9 9 7 8 7 8 9 11 13 14 14 12 11 10
23 12 38 34 28 22 18 5 15 17 16 16 11 13 19 16 9 7 4 7 7 8 8 7 8 8 8 9 10 11 11 10 10 12 11 11 12 14 16 17 16 14 12
24 21 32 40 33 29 23 13 16 16 13 13 9 14 21 14 10 6 8 10 10 9 9 9 8 8 8 9 11 12 13 13 12 11 11 11 13 15 16 17 18 19 17
25 31 37 41 34 28 24 20 16 19 15 13 12 18 17 13 9 10 12 11 10 11 10 8 8 8 8 7 8 8 9 9 10 11 11 14 15 17 19 19 19 19 19
23 31 33 29 25 27 25 21 18 20 19 15 17 19 17 13 11 12 13 13 12 10 9 7 6 6 6 5 5 4 5 6 7 9 11 13 15 18 20 21 21 21 21
25 28 27 25 25 29 27 24 22 23 22 18 21 21 17 13 13 14 14 13 13 10 8 6 4 4 3 3 3 3 2 5 7 8 10 12 15 20 21 22 21 24 28
27 30 31 28 27 31 30 29 27 26 24 21 24 20 16 14 14 15 14 13 11 9 8 7 6 4 3 1 1 5 7 8 7 8 9 14 21 21 18 19 22 24 23
27 31 33 30 31 34 33 32 30 29 27 27 26 21 18 15 16 15 14 11 9 8 8 6 6 5 4 4 3 6 9 11 9 10 15 22 24 20 17 17 18 20 23
29 33 34 31 33 31 37 32 32 30 29 30 27 23 20 18 18 16 15 11 9 8 6 7 7 4 4 4 5 8 9 12 12 15 22 25 23 22 21 20 17 16 19
27 27 26 23 17 23 34 35 32 31 31 32 28 24 23 23 22 19 16 13 11 11 8 8 6 3 2 5 8 10 11 13 16 20 23 24 24 23 22 21 21 22 22
23 23 20 23 23 30 36 36 31 33 34 31 27 24 22 22 22 20 18 15 13 11 8 8 7 5 6 7 9 11 11 13 18 23 24 24 24 22 20 22 24 28 30
24 22 16 27 21 40 43 35 31 30 30 28 23 21 22 24 21 17 16 16 12 10 8 8 8 7 7 8 11 10 11 15 19 23 22 24 23 19 19 21 26 31 28
18 15 17 16 14 35 37 34 29 24 24 19 15 14 17 14 17 17 17 17 14 11 9 9 10 10 10 10 11 12 13 16 19 22 21 23 21 19 21 24 27 30 28
18 12 22 34 34 27 27 29 31 28 24 21 19 18 17 19 19 17 16 15 13 12 12 12 10 11 11 12 14 15 15 18 20 21 22 22 21 20 21 24 29 30 28
19 8 36 25 20 26 22 28 30 31 30 25 23 23 25 22 19 17 17 16 14 14 12 11 11 11 13 15 16 15 17 17 20 21 22 21 20 21 23 26 29 28 27
10 17 14 15 24 22 24 27 26 25 23 22 23 26 26 22 18 16 15 13 11 11 12 11 11 13 15 16 17 18 19 19 20 20 21 20 20 22 24 27 29 26 25
8 20 19 14 23 23 24 25 23 21 22 24 23 23 23 21 18 14 12 13 13 12 11 12 14 17 19 18 16 16 17 19 20 20 20 21 21 22 26 28 27 25 24
12 11 20 21 23 24 25 23 21 22 25 23 21 20 18 18 16 15 13 14 12 10 10 13 15 16 16 13 13 16 17 18 19 20 20 22 23 24 26 26 24 23 20
19 19 18 19 24 24 23 21 23 24 21 20 20 19 20 22 18 14 14 13 11 12 13 16 18 16 14 14 15 17 16 17 18 19 20 22 24 25 26 24 24 21 17
16 20 18 22 25 24 23 21 21 20 18 18 18 20 23 22 21 18 16 15 14 15 16 19 18 15 15 15 15 16 17 18 18 19 19 22 25 25 24 23 22 20 17
19 21 24 25 25 22 22 21 19 18 18 17 18 19 18 18 17 18 18 16 15 17 19 19 14 14 12 14 14 17 18 18 18 18 19 23 25 24 23 23 21 19 18
18 19 21 25 25 23 21 18 17 19 20 20 18 17 14 12 10 8 7 11 16 19 16 14 14 14 14 15 16 17 17 17 18 18 18 24 25 23 22 21 20 19 18
22 20 21 22 22 21 19 19 18 18 17 17 19 15 15 13 12 13 12 13 12 11 13 12 13 13 16 17 17 16 16 16 16 16 19 24 25 22 21 21 20 19 17
Wind_Direction
239 225 227 226 225 224 222 231 218 216 241 249 247 224 227 217 296 332 338 340 346 2 32 67 68 61 54 49 42 28 34 58 80 33 8 7 8 12 14 10 359 357 356
238 230 224 237 226 224 223 241 227 213 218 258 254 240 223 212 303 332 350 354 4 71 88 77 74 67 60 63 60 52 47 47 39 41 37 36 27 29 29 23 22 15 7
225 246 248 228 221 212 216 265 216 214 226 236 230 230 195 180 359 349 6 11 100 110 100 92 85 79 71 67 61 61 59 56 62 67 59 48 44 41 38 32 28 26 23
170 270 244 226 211 210 205 259 240 222 216 162 169 210 187 202 219 17 3 160 142 130 114 104 90 85 78 73 65 57 50 42 45 52 57 54 45 34 23 16 11 10 10
203 200 237 237 208 199 202 247 212 204 202 229 259 236 199 191 215 257 233 175 156 141 132 119 109 99 90 85 79 63 49 47 59 64 56 47 35 24 20 16 10 3 358
201 169 227 216 207 206 214 231 218 210 212 229 245 175 186 200 202 210 186 173 161 147 132 124 113 97 90 89 77 68 63 62 58 54 44 30 15 8 4 357 351 350 351
196 197 194 200 205 205 208 222 213 204 206 213 190 183 198 200 193 189 172 172 163 148 133 120 116 107 102 95 76 52 42 42 38 29 21 13 5 355 349 342 335 330 329
205 206 193 199 209 207 207 218 211 204 203 205 189 187 194 194 192 177 174 172 168 159 146 133 126 120 118 106 77 24 353 4 6 5 4 353 344 338 333 327 325 320 317
212 205 202 209 211 207 207 212 212 203 198 200 193 189 195 196 186 181 182 176 171 170 166 166 160 159 138 107 68 39 355 338 339 333 336 335 333 330 323 320 318 317 316
216 207 205 211 215 209 208 210 208 197 194 195 190 191 194 195 186 181 181 177 177 182 190 197 203 207 225 248 16 353 357 347 330 315 323 329 333 331 320 311 310 315 317
225 214 209 213 212 206 206 209 196 191 193 186 185 188 191 192 189 184 185 184 191 197 195 208 218 211 263 264 285 327 340 340 335 329 330 332 332 333 328 323 317 314 313
229 220 219 222 213 210 208 197 188 189 193 186 184 188 188 186 188 187 187 192 205 205 219 203 188 223 276 254 282 308 317 338 331 331 334 335 335 333 330 330 328 318 310
244 232 246 240 214 237 217 195 184 191 191 187 189 190 190 186 185 187 187 189 192 193 196 186 197 234 284 281 288 304 307 327 333 333 335 336 334 331 328 324 319 317 313
252 253 235 213 202 244 222 202 192 190 189 191 190 191 190 189 188 189 191 190 187 189 194 205 215 241 276 294 295 301 301 323 332 332 333 331 330 327 325 324 325 326 323
248 245 236 218 228 228 220 200 198 195 193 192 193 193 193 192 191 189 188 181 173 178 201 224 230 245 273 297 311 312 314 318 320 325 326 328 327 324 323 324 326 329 327
222 222 233 231 239 198 197 194 192 192 189 192 198 198 195 193 177 181 181 183 193 211 230 248 246 248 275 294 308 305 306 307 314 322 325 327 325 323 322 326 327 328 324
223 232 228 239 210 213 196 195 186 179 184 183 184 180 178 173 175 181 188 195 207 228 248 254 252 251 272 291 306 312 310 307 316 323 327 327 324 320 320 324 327 326 323
234 211 166 180 194 199 197 197 189 185 180 181 184 177 171 175 180 190 204 213 223 241 238 238 248 260 275 290 301 307 307 308 316 319 325 325 320 317 320 323 325 323 321
181 170 225 209 195 190 193 192 188 189 183 187 181 175 178 184 192 205 214 218 218 213 220 237 255 269 281 293 300 305 309 307 311 317 324 325 321 316 319 321 322 321 319
243 232 227 230 187 180 180 180 184 184 188 184 178 182 185 186 187 189 195 188 195 211 235 259 276 286 293 293 298 306 308 308 307 314 321 325 322 319 319 321 321 321 322
235 213 211 211 188 174 178 179 184 186 185 187 187 188 184 177 169 177 186 193 207 228 255 275 289 292 298 290 287 296 300 303 307 313 318 326 325 322 321 321 322 322 321
230 223 216 196 180 177 177 178 184 184 184 185 188 187 187 186 182 186 202 213 229 251 267 278 284 287 289 282 284 290 298 304 304 310 316 324 326 323 323 323 322 321 316
189 200 189 173 174 175 176 178 178 178 180 180 183 186 186 188 196 211 225 237 248 259 266 276 280 288 291 285 286 294 298 302 299 308 315 325 327 325 323 324 324 320 314
175 173 167 164 167 169 170 171 174 179 179 175 179 184 193 211 225 235 239 248 256 261 266 274 279 290 285 289 293 295 294 297 298 307 315 328 329 328 327 327 326 322 316
166 170 171 171 171 172 173 178 185 188 189 188 189 198 215 231 244 242 228 231 243 256 268 271 278 284 283 299 302 295 293 295 301 308 317 330 330 329 328 327 325 323 321
175 171 172 176 176 178 184 189 192 194 198 202 199 203 216 234 236 217 219 230 246 257 267 266 274 280 286 297 309 300 291 294 300 311 318 329 331 329 328 327 327 327 328